Zurück zum Katalog

STARLINK-4521

AktivKommunikationVLEO
NORAD 53391·PAYLOAD·🇺🇸 United States

Gestartet Aug 10, 2022 von Cape Canaveral Space Force Station

Loading…

Nächste Überflüge (nächste 24 Stunden)

TLE

AktuellSource: CelesTrak SupGP

Epoche: Sep 14, 2026, 21:39 UTC

1 53391C 22097D   26257.90256944 -.00033283  00000+0 -10712-2 0  2572
2 53391  53.1592 344.9915 0001355  94.5027 306.2065 15.31692071    12

Verfolge STARLINK-4521 in Echtzeit mit AllMySat

Download on the App Store